Kankakee, IL

12:15 AM CDT on October 24, 2019 (GMT -0500)
Greater Kankakee

Weather History for KIKK - August, 2019

Change the Weather History Date:

Tuesday, August 27, 2019

  Actual Average Record
Temperature  
Mean Temperature 71 °F -  
Max Temperature 81 °F 85 °F 95 °F (1991)
Min Temperature 61 °F 61 °F 48 °F (2015)
Cooling Degree Days 6    
Growing Degree Days 21 (Base 50)    
Moisture  
Dew Point 62 °F    
Average Humidity 76    
Maximum Humidity 98    
Minimum Humidity 47    
Precipitation  
Precipitation 0.00 in - - ()
Sea Level Pressure  
Sea Level Pressure 29.86 in    
Wind  
Wind Speed 7 mph (West)    
Max Wind Speed 17 mph    
Max Gust Speed 21 mph    
Visibility 10 miles    
Events      
Averages and records for this station are not official NWS values.
T = Trace of Precipitation, MM = Missing Value Source: NWS Daily Summary

Daily Weather History Graph

Daily Weather History Graph

Search for Another Location

Airport or City:

Astronomy

Aug. 27, 2019 Rise Set
Actual Time 6:12 AM CDT 7:32 PM CDT
Civil Twilight 5:44 AM CDT 8:00 PM CDT
Nautical Twilight 5:09 AM CDT 8:35 PM CDT
Astronomical Twilight 4:33 AM CDT 9:11 PM CDT
Moon 2:35 AM CDT (8/27) 5:54 PM CDT (8/27)
Length of Visible Light 14h 16m
Length of Day
13h 19m
Waning Crescent, 11% of the Moon is Illuminated
Aug 27
Waning Crescent
Aug 30
New
Sep 5
First Quarter
Sep 13
Full
Sep 21
Last Quarter

Hourly Weather History & Observations

Time (CDT) Temp. Heat Index Dew Point Humidity Pressure Visibility Wind Dir Wind Speed Gust Speed Precip Events Conditions
12:15 AM 68.4 °F - 67.3 °F 96% 29.77 in 10.0 mi WSW 5.8 mph - N/A   Clear
12:35 AM 67.8 °F - 66.9 °F 97% 29.78 in 10.0 mi WSW 4.6 mph - N/A   Clear
12:55 AM 68.0 °F - 66.4 °F 95% 29.78 in 10.0 mi SW 4.6 mph - N/A   Clear
1:15 AM 67.5 °F - 66.2 °F 96% 29.78 in 10.0 mi WSW 4.6 mph - N/A   Clear
1:35 AM 66.2 °F - 65.1 °F 96% 29.79 in 10.0 mi WSW 5.8 mph - N/A   Clear
1:55 AM 66.4 °F - 65.7 °F 98% 29.79 in 10.0 mi SW 4.6 mph - N/A   Scattered Clouds
2:15 AM 66.7 °F - 66.0 °F 98% 29.80 in 10.0 mi WSW 5.8 mph - N/A   Overcast
2:35 AM 67.1 °F - 66.2 °F 97% 29.80 in 10.0 mi SW 4.6 mph - N/A   Overcast
2:55 AM 66.7 °F - 65.8 °F 97% 29.80 in 10.0 mi SSW 4.6 mph - N/A   Overcast
3:15 AM 66.4 °F - 65.7 °F 98% 29.80 in 10.0 mi SW 4.6 mph - N/A   Mostly Cloudy
3:35 AM 66.2 °F - 65.5 °F 98% 29.81 in 10.0 mi SW 8.1 mph - N/A   Mostly Cloudy
3:55 AM 65.8 °F - 65.3 °F 98% 29.81 in 7.0 mi SW 5.8 mph - N/A   Overcast
4:15 AM 66.2 °F - 65.3 °F 97% 29.81 in 10.0 mi SW 4.6 mph - N/A   Overcast
4:35 AM 66.2 °F - 65.3 °F 97% 29.81 in 10.0 mi WSW 3.5 mph - N/A   Overcast
4:55 AM 66.2 °F - 65.3 °F 97% 29.82 in 10.0 mi SSW 4.6 mph - N/A   Scattered Clouds
5:15 AM 65.7 °F - 64.9 °F 98% 29.82 in 10.0 mi Calm Calm - N/A   Clear
5:35 AM 65.8 °F - 65.3 °F 98% 29.82 in 10.0 mi WSW 3.5 mph - N/A   Mostly Cloudy
5:55 AM 65.3 °F - 64.6 °F 98% 29.82 in 10.0 mi WSW 3.5 mph - N/A   Mostly Cloudy
6:15 AM 65.5 °F - 64.8 °F 98% 29.82 in 10.0 mi West 3.5 mph - N/A   Overcast
6:35 AM 65.8 °F - 65.3 °F 98% 29.83 in 10.0 mi WNW 5.8 mph - N/A   Overcast
6:55 AM 66.4 °F - 65.7 °F 98% 29.84 in 10.0 mi West 6.9 mph - N/A   Overcast
7:15 AM 66.4 °F - 65.7 °F 98% 29.84 in 10.0 mi WNW 6.9 mph - N/A   Overcast
7:35 AM 66.6 °F - 65.8 °F 98% 29.84 in 10.0 mi WNW 6.9 mph - N/A   Scattered Clouds
7:55 AM 66.7 °F - 66.2 °F 98% 29.85 in 10.0 mi WNW 4.6 mph - N/A   Scattered Clouds
8:15 AM 66.7 °F - 66.0 °F 98% 29.86 in 10.0 mi WNW 6.9 mph - N/A   Scattered Clouds
8:35 AM 66.6 °F - 66.0 °F 98% 29.85 in 10.0 mi West 5.8 mph - N/A   Scattered Clouds
8:55 AM 67.3 °F - 66.4 °F 97% 29.86 in 10.0 mi WNW 6.9 mph - N/A   Mostly Cloudy
9:15 AM 69.4 °F - 66.2 °F 89% 29.86 in 10.0 mi WNW 11.5 mph - N/A   Mostly Cloudy
9:35 AM 70.5 °F - 64.9 °F 82% 29.87 in 10.0 mi WNW 5.8 mph - N/A   Scattered Clouds
9:55 AM 71.8 °F - 64.6 °F 78% 29.87 in 10.0 mi West 5.8 mph - N/A   Clear
10:15 AM 73.6 °F - 64.0 °F 72% 29.87 in 10.0 mi West 6.9 mph - N/A   Clear
10:35 AM 75.2 °F - 63.0 °F 66% 29.87 in 10.0 mi West 6.9 mph - N/A   Clear
10:55 AM 75.7 °F - 63.7 °F 66% 29.87 in 10.0 mi SW 6.9 mph - N/A   Clear
11:15 AM 76.6 °F - 63.3 °F 63% 29.87 in 10.0 mi WSW 9.2 mph - N/A   Clear
11:35 AM 77.9 °F - 63.7 °F 61% 29.87 in 10.0 mi West 10.4 mph - N/A   Scattered Clouds
11:55 AM 78.3 °F - 63.7 °F 61% 29.87 in 10.0 mi West 9.2 mph - N/A   Scattered Clouds
12:15 PM 78.3 °F - 63.9 °F 61% 29.86 in 10.0 mi WSW 10.4 mph - N/A   Mostly Cloudy
12:35 PM 78.8 °F - 64.6 °F 62% 29.86 in 10.0 mi West 10.4 mph - N/A   Mostly Cloudy
12:55 PM 79.7 °F - 64.8 °F 60% 29.86 in 10.0 mi West 11.5 mph - N/A   Overcast
1:15 PM 79.9 °F - 63.5 °F 57% 29.86 in 10.0 mi West 9.2 mph - N/A   Scattered Clouds
1:35 PM 79.0 °F - 63.0 °F 58% 29.86 in 10.0 mi West 12.7 mph 16.1 mph N/A   Mostly Cloudy
1:55 PM 80.2 °F 81.3 °F 61.7 °F 53% 29.86 in 10.0 mi WNW 11.5 mph 16.1 mph N/A   Scattered Clouds
2:15 PM 81.1 °F 81.9 °F 60.8 °F 50% 29.87 in 10.0 mi West 12.7 mph 18.4 mph N/A   Clear
2:35 PM 81.7 °F 82.7 °F 62.2 °F 52% 29.87 in 10.0 mi West 13.8 mph - N/A   Scattered Clouds
2:55 PM 81.5 °F 82.5 °F 62.4 °F 52% 29.87 in 10.0 mi West 13.8 mph - N/A   Scattered Clouds
3:15 PM 81.5 °F 82.0 °F 60.3 °F 48% 29.87 in 10.0 mi West 12.7 mph - N/A   Scattered Clouds
3:35 PM 80.8 °F 81.5 °F 60.4 °F 50% 29.87 in 10.0 mi West 9.2 mph - N/A   Scattered Clouds
3:55 PM 81.0 °F 81.7 °F 60.4 °F 50% 29.87 in 10.0 mi West 11.5 mph 17.3 mph N/A   Scattered Clouds
4:15 PM 81.0 °F 81.7 °F 61.0 °F 50% 29.87 in 10.0 mi West 15.0 mph - N/A   Clear
4:35 PM 81.0 °F 81.3 °F 59.2 °F 47% 29.87 in 10.0 mi West 16.1 mph - N/A   Clear
4:55 PM 80.6 °F 81.1 °F 59.0 °F 48% 29.87 in 10.0 mi WNW 15.0 mph 19.6 mph N/A   Clear
5:15 PM 79.9 °F - 58.3 °F 48% 29.87 in 10.0 mi West 17.3 mph 20.7 mph N/A   Clear
5:35 PM 79.3 °F - 58.8 °F 49% 29.87 in 10.0 mi West 11.5 mph 18.4 mph N/A   Clear
5:55 PM 78.6 °F - 58.5 °F 50% 29.87 in 10.0 mi West 12.7 mph 17.3 mph N/A   Clear
6:15 PM 77.4 °F - 58.6 °F 52% 29.87 in 10.0 mi West 6.9 mph - N/A   Clear
6:35 PM 76.3 °F - 57.2 °F 52% 29.88 in 10.0 mi West 9.2 mph - N/A   Clear
6:55 PM 74.3 °F - 57.9 °F 57% 29.89 in 10.0 mi West 9.2 mph - N/A   Clear
7:15 PM 71.8 °F - 58.8 °F 64% 29.90 in 10.0 mi West 6.9 mph - N/A   Clear
7:35 PM 70.3 °F - 58.1 °F 65% 29.91 in 10.0 mi West 8.1 mph - N/A   Scattered Clouds
7:55 PM 69.4 °F - 58.3 °F 68% 29.91 in 10.0 mi WSW 5.8 mph - N/A   Mostly Cloudy
8:15 PM 67.8 °F - 58.1 °F 71% 29.92 in 10.0 mi WSW 4.6 mph - N/A   Scattered Clouds
8:35 PM 67.6 °F - 58.5 °F 72% 29.92 in 10.0 mi WSW 6.9 mph - N/A   Scattered Clouds
8:55 PM 67.1 °F - 58.6 °F 74% 29.93 in 10.0 mi West 5.8 mph - N/A   Scattered Clouds
9:15 PM 66.7 °F - 58.5 °F 75% 29.94 in 10.0 mi West 8.1 mph - N/A   Clear
9:35 PM 66.6 °F - 58.5 °F 75% 29.94 in 10.0 mi West 8.1 mph - N/A   Clear
9:55 PM 65.3 °F - 58.3 °F 78% 29.94 in 10.0 mi West 6.9 mph - N/A   Clear
10:15 PM 64.9 °F - 58.3 °F 79% 29.95 in 10.0 mi West 6.9 mph - N/A   Clear
10:35 PM 64.0 °F - 58.1 °F 81% 29.95 in 10.0 mi West 8.1 mph - N/A   Clear
10:55 PM 62.8 °F - 57.6 °F 83% 29.95 in 10.0 mi West 6.9 mph - N/A   Clear
11:15 PM 61.7 °F - 57.4 °F 86% 29.95 in 10.0 mi WSW 4.6 mph - N/A   Clear
11:35 PM 62.8 °F - 57.2 °F 82% 29.95 in 10.0 mi WSW 4.6 mph - N/A   Clear
11:55 PM 63.0 °F - 56.7 °F 80% 29.94 in 10.0 mi SW 3.5 mph - N/A   Scattered Clouds